Regional Weather Roundup
Issued by NWS

Home | Current Version | Previous Version | Text Only | Print | Product List | Glossary On
Versions: 1 2 3 4 5 6 7 8 9 10 11 12 13 14 15 16 17 18 19 20 21 22 23 24 25 26 27 28 29 30 31 32 33 34 35 36 37 38 39 40 41 42 43 44 45 46 47 48 49 50
000
ASUS43 KLMK 040410
RWRKY
KENTUCKY REGIONAL WEATHER ROUNDUP
NATIONAL WEATHER SERVICE LOUISVILLE KY
1200 AM EDT FRI SEP 04 2015

NOTE "FAIR" INDICATES FEW OR NO CLOUDS BELOW 12,000 FEET
WITH NO SIGNIFICANT WEATHER AND/OR OBSTRUCTIONS TO VISIBILITY.

KYZ001>023-026-027-061>063-070>075-040500-
WESTERN AND SOUTH CENTRAL KENTUCKY

CITY           SKY/WX    TMP DP  RH WIND       PRES   REMARKS
PADUCAH        CLEAR     71  68  90 CALM      29.96S FOG
HENDERSON      CLEAR     72  66  83 CALM      29.96S
OWENSBORO      LGT RAIN  74  70  87 W5        29.97S
HOPKINSVILLE   CLEAR     75  68  80 CALM      29.97S
BOWLING GREEN  CLEAR     74  71  91 CALM      29.98S
GLASGOW        CLEAR     70  70 100 CALM      29.99S
$$

KYZ024-025-028>034-038-045-046-053-040500-
NORTH CENTRAL KENTUCKY

CITY           SKY/WX    TMP DP  RH WIND       PRES   REMARKS
LOUISVILLE/SDF CLEAR     81  67  62 CALM      29.96S
LOUISVILLE/LOU CLEAR     77  68  73 CALM      29.98R
FORT KNOX      CLEAR     70  67  88 CALM      29.97S
$$

KYZ035>037-039>044-047>052-055>060-089>105-040500-
NORTHEAST KENTUCKY

CITY           SKY/WX    TMP DP  RH WIND       PRES   REMARKS
LEXINGTON      CLEAR     74  67  78 CALM      30.00S
COVINGTON      CLEAR     73  66  78 CALM      29.98S
FRANKFORT      CLEAR     71  66  84 CALM      29.98S
$$

KYZ054-064>069-076>088-106>120-040500-
SOUTHEAST KENTUCKY

CITY           SKY/WX    TMP DP  RH WIND       PRES   REMARKS
JACKSON        CLEAR     75  65  70 CALM      30.02F
LONDON         CLEAR     71  66  84 CALM      30.02S
SOMERSET       CLEAR     70  70 100 CALM      30.02S
MIDDLESBORO    CLEAR     68  67  94 CALM      30.03S
MONTICELLO     CLEAR     67  67 100 CALM      30.03S FOG
$$



USA.gov is the U.S. government's official web portal to all federal, state and local government web resources and services.